星链-4759 (STARLINK-4759 )

导读

STARLINK-4759是美国SpaceX公司星链(Starlink)卫星互联网项目中的一员,于2022年9月19日发射入轨。星链计划旨在通过部署近地轨道卫星星座,为全球偏远地区提供高速低延迟宽带互联网服务,STARLINK-4759的成功入轨,进一步扩充了星链星座的网络覆盖能力,推动项目全球化服务布局。

Basic Information
目录编号:
53829
目录名称:
STARLINK-4759
国际标识:
2022-114M
轨道中心:
EARTH
卫星名称:
星链-4759
卫星全名:
星链-4759 (STARLINK-4759 )
卫星状态:
在轨 (已飞行1367 天)
发射日期:
2022-09-19 UTC
国别 :
美国 (US)
星等 :
--
Orbit Information
数据来源 国际轨道数据 AOE轨道数据
星历时间 2026-06-17T04:50:18+0800
12小时前
查看轨道信息
2026-06-16T14:00:00+0800
1天前
查看轨道信息
半长轴 6917.9km 6917.905km
偏心率 0.0001066 0.000113
轨道倾角 53.159° 53.157°
近地点辐角 85.395° 86.868°
升交点赤经 218.819° 221.599°
平近点角 274.716° 153.142°
近地点 539.025km 538.986km
远地点 540.501km 540.55km
周期 95.438分钟 95.438分钟
每日圈数 15.088336 15.08832
Detailed Information
固有亮度:
5
最大亮度:
2.5
卫星平台:
Starlink v1.5
覆盖范围:
全球
运营商:
太空探索技术公司
运营商所在国:
美国
制造商(研发单位):
太空探索技术公司
制造商所在国:
美国
使用方式:
暂无
Satellite Introduction
星链(Starlink)计划是由太空探索技术公司(SpaceX)提出的一个巨型低轨卫星互联网星座项目,计划在2019年至2024年间在太空搭建由约1.2万颗卫星组成的“星链”网络,其中1584颗将部署在地球上空550千米处的近地轨道,并从2020年开始工作。该卫星仍在工作。
2D Orbit Map
3D Orbit Map
Orbit Altitude Analysis Chart
Orbit Inclination Analysis Chart
Orbit Comprehensive Analysis Chart
View Comprehensive Chart